Location: Unspecified
(54.1780°N, 4.6260°W)
Time: 22:14:55
(UTC+00:00)

Cosmos 2150 Rocket - Visible Passes

Search period start: 18 November 2025 00:00
Search period end: 28 November 2025 00:00
Orbit: 745 x 804 km, 74.0° (Epoch: 18 November)

Date Brightness Start Highest point End Pass type
(mag) Time Alt. Az. Time Alt. Az. Time Alt. Az.
18 Nov 7.0 02:42:48 10° NNE 02:42:48 10° NNE 02:42:51 10° NNE visible
18 Nov 6.1 04:23:12 17° N 04:23:12 17° N 04:24:48 10° NNE visible
18 Nov 6.2 06:03:39 10° NNW 06:04:40 10° NNW 06:05:41 10° N visible
19 Nov 6.4 03:48:49 15° N 03:48:49 15° N 03:49:47 10° NNE visible
19 Nov 6.1 05:29:13 12° NNW 05:29:13 12° NNW 05:31:07 10° N visible
20 Nov 6.8 03:14:26 11° NNE 03:14:26 11° NNE 03:14:43 10° NNE visible
20 Nov 6.2 04:54:49 13° N 04:54:49 13° N 04:56:16 10° N visible
21 Nov 6.4 04:20:25 13° N 04:20:25 13° N 04:21:21 10° N visible
22 Nov 6.6 03:45:59 12° N 03:45:59 12° N 03:46:23 10° NNE visible
22 Nov 6.3 05:26:23 10° NNW 05:26:26 10° NNW 05:27:03 10° N visible
23 Nov 6.4 04:51:57 11° N 04:51:57 11° N 04:52:39 10° N visible
24 Nov 6.6 04:17:30 11° N 04:17:30 11° N 04:17:50 10° N visible
25 Nov 6.3 07:07:03 10° N 07:09:01 12° NNE 07:10:59 10° NE visible
26 Nov 6.5 06:32:37 10° N 06:33:15 10° NNE 06:33:53 10° NNE visible
